Powrót do katalogu

CAPELLA-17

ACADIA

AktywnyNaukaSSO
NORAD 64583·PAYLOAD·🇺🇸 United States

Wystrzelony Jun 23, 2025 z Vandenberg Space Force Base

Loading…

Następne Przeloty (najbliższe 24 godziny)

TLE

ŚwieżeSource: Space-Track

Epoka: Sep 14, 2026, 17:58 UTC

1 64583U 25135BH  26257.74916076  .00004910  00000-0  48706-3 0  9996
2 64583  97.7756  10.1047 0006208  65.2528 294.9337 14.92214573 67206

Śledź CAPELLA-17 w czasie rzeczywistym z AllMySat

Download on the App Store